^^
Saratoga-Weather Station Historical Data
Daily Summary for September 3, 2021 Units:  Metric    English   Both
Daily Weekly Monthly Yearly Custom
  High: Low: Average:
Temperature: 12.6 °C 8.1 °C 10.7 °C
Dew Point: 10.9 °C 5.7 °C 9.1 °C
Humidity: 97% 78% 90%
Wind Speed: 27.4km/h 0km/h 6.6km/h
Wind Gust: 45.1km/h - -
Wind- - WSW
Pressure: 1008.1 hPa 996.3 hPa -
Precipitation: 21.8 mm    
Historical Graphs
 
 
Tabular Data for September 3, 2021
Time Temperature Dew Point Pressure Wind Wind Speed Wind Gust Humidity Rainfall Rate (Hourly) solar
00:03 11.1 °C 9.8 °C 1003.0 hPa SSW 1.4 km/h 6.4 km/h 92% 0.0 mm 0 W/m2
00:08 11.1 °C 9.8 °C 1003.0 hPa West 1.4 km/h 4.8 km/h 92% 0.0 mm 0 W/m2
00:13 11 °C 9.9 °C 1003.0 hPa NNW 4.7 km/h 11.3 km/h 93% 0.0 mm 0 W/m2
00:18 11.1 °C 10 °C 1003.0 hPa ESE 1.4 km/h 3.2 km/h 93% 0.0 mm 0 W/m2
00:23 11 °C 9.9 °C 1003.0 hPa Calm   9.7 km/h 93% 0.0 mm 0 W/m2
00:28 11 °C 9.9 °C 1003.0 hPa NNE 1.4 km/h 3.2 km/h 93% 0.0 mm 0 W/m2
00:33 11 °C 9.9 °C 1003.0 hPa East 4.7 km/h 4.8 km/h 93% 0.0 mm 0 W/m2
00:38 11 °C 9.9 °C 1003.0 hPa WNW 4.7 km/h 4.8 km/h 93% 0.0 mm 0 W/m2
00:43 11.1 °C 10 °C 1003.0 hPa West 1.4 km/h 6.4 km/h 93% 0.2 mm 0 W/m2
00:48 11.1 °C 10 °C 1003.0 hPa WNW 4.7 km/h 8 km/h 93% 0.2 mm 0 W/m2
00:53 11.1 °C 10.2 °C 1002.7 hPa Calm   3.2 km/h 94% 0.2 mm 0 W/m2
00:58 11 °C 10.1 °C 1002.7 hPa WSW 6.4 km/h 11.3 km/h 94% 0.2 mm 0 W/m2
01:03 11 °C 10.1 °C 1003.0 hPa WSW 6.4 km/h 19.3 km/h 94% 0.2 mm 0 W/m2
01:08 11.1 °C 10.2 °C 1003.0 hPa WSW 4.7 km/h 19.3 km/h 94% 0.2 mm 0 W/m2
01:13 11.1 °C 10.2 °C 1003.0 hPa NW 11.1 km/h 12.9 km/h 94% 0.2 mm 0 W/m2
01:18 11.1 °C 10.2 °C 1002.7 hPa ENE 1.4 km/h 17.7 km/h 94% 0.2 mm 0 W/m2
01:23 11.2 °C 10.3 °C 1003.0 hPa WNW 1.4 km/h 6.4 km/h 94% 0.2 mm 0 W/m2
01:28 11.2 °C 10.3 °C 1002.7 hPa North 1.4 km/h 4.8 km/h 94% 0.2 mm 0 W/m2
01:33 11.2 °C 10.1 °C 1002.7 hPa Calm   6.4 km/h 93% 0.2 mm 0 W/m2
01:38 11.2 °C 10.1 °C 1002.7 hPa ESE 1.4 km/h 12.9 km/h 93% 0.0 mm 0 W/m2
01:43 11.2 °C 10.1 °C 1002.7 hPa Calm   4.8 km/h 93% 0.0 mm 0 W/m2
01:48 11.3 °C 10.2 °C 1002.7 hPa NNW 3.2 km/h 6.4 km/h 93% 0.0 mm 0 W/m2
01:53 11.3 °C 10.2 °C 1002.7 hPa West 3.2 km/h 11.3 km/h 93% 0.0 mm 0 W/m2
01:58 11.3 °C 10.2 °C 1002.7 hPa WNW 3.2 km/h 6.4 km/h 93% 0.0 mm 0 W/m2
02:03 11.4 °C 10.1 °C 1003.0 hPa WNW 1.4 km/h 6.4 km/h 92% 0.0 mm 0 W/m2
02:08 11.3 °C 10 °C 1002.7 hPa West 4.7 km/h 6.4 km/h 92% 0.0 mm 0 W/m2
02:13 11.4 °C 10.1 °C 1002.7 hPa West 3.2 km/h 8 km/h 92% 0.0 mm 0 W/m2
02:18 11.4 °C 10.1 °C 1002.7 hPa NW 4.7 km/h 6.4 km/h 92% 0.0 mm 0 W/m2
02:23 11.4 °C 10.1 °C 1002.4 hPa North 4.7 km/h 14.5 km/h 92% 0.0 mm 0 W/m2
02:28 11.3 °C 10 °C 1002.0 hPa West 4.7 km/h 11.3 km/h 92% 0.0 mm 0 W/m2
02:33 11.3 °C 10 °C 1002.4 hPa WNW 1.4 km/h 14.5 km/h 92% 0.0 mm 0 W/m2
02:38 11.2 °C 9.9 °C 1002.0 hPa NW 3.2 km/h 6.4 km/h 92% 0.0 mm 0 W/m2
02:43 11.2 °C 9.9 °C 1002.4 hPa WNW 1.4 km/h 9.7 km/h 92% 0.0 mm 0 W/m2
02:48 11.2 °C 9.9 °C 1002.4 hPa NW 6.4 km/h 9.7 km/h 92% 0.0 mm 0 W/m2
02:53 11.2 °C 9.9 °C 1002.4 hPa West 3.2 km/h 12.9 km/h 92% 0.0 mm 0 W/m2
02:58 11.2 °C 9.9 °C 1002.7 hPa South 6.4 km/h 11.3 km/h 92% 0.0 mm 0 W/m2
03:03 11.2 °C 9.9 °C 1002.4 hPa North 6.4 km/h 16.1 km/h 92% 0.0 mm 0 W/m2
03:08 11.2 °C 9.9 °C 1002.4 hPa WNW 3.2 km/h 6.4 km/h 92% 0.0 mm 0 W/m2
03:13 11.2 °C 9.9 °C 1002.4 hPa WSW 3.2 km/h 4.8 km/h 92% 0.0 mm 0 W/m2
03:18 11.2 °C 9.9 °C 1002.4 hPa NNW 4.7 km/h 12.9 km/h 92% 0.0 mm 0 W/m2
03:23 11.2 °C 9.9 °C 1002.0 hPa NNW 4.7 km/h 6.4 km/h 92% 0.0 mm 0 W/m2
03:28 11.2 °C 9.8 °C 1002.0 hPa North 1.4 km/h 12.9 km/h 91% 0.0 mm 0 W/m2
03:33 11.2 °C 9.8 °C 1002.0 hPa WNW 1.4 km/h 4.8 km/h 91% 0.0 mm 0 W/m2
03:38 11.2 °C 9.8 °C 1002.4 hPa NNW 9.7 km/h 14.5 km/h 91% 0.0 mm 0 W/m2
03:43 11.2 °C 9.8 °C 1002.0 hPa Calm   3.2 km/h 91% 0.0 mm 0 W/m2
03:48 11.2 °C 9.8 °C 1002.0 hPa WNW 3.2 km/h 9.7 km/h 91% 0.0 mm 0 W/m2
03:54 11.2 °C 9.8 °C 1002.0 hPa NNW 6.4 km/h 12.9 km/h 91% 0.0 mm 0 W/m2
03:59 11.2 °C 9.8 °C 1002.0 hPa NW 6.4 km/h 6.4 km/h 91% 0.0 mm 0 W/m2
04:04 11.2 °C 9.8 °C 1002.0 hPa WNW 9.7 km/h 14.5 km/h 91% 0.0 mm 0 W/m2
04:09 11.2 °C 9.6 °C 1002.0 hPa NW 6.4 km/h 9.7 km/h 90% 0.0 mm 0 W/m2
04:14 11.2 °C 9.6 °C 1002.0 hPa West 1.4 km/h 16.1 km/h 90% 0.0 mm 0 W/m2
04:19 11.2 °C 9.6 °C 1002.0 hPa NNW 4.7 km/h 9.7 km/h 90% 0.0 mm 0 W/m2
04:24 11.2 °C 9.6 °C 1002.0 hPa NE 4.7 km/h 14.5 km/h 90% 0.0 mm 0 W/m2
04:29 11.2 °C 9.6 °C 1002.0 hPa NW 6.4 km/h 12.9 km/h 90% 0.0 mm 0 W/m2
04:34 11.1 °C 9.4 °C 1001.7 hPa SSW 3.2 km/h 16.1 km/h 89% 0.0 mm 0 W/m2
04:39 11.1 °C 9.4 °C 1001.7 hPa NNW 3.2 km/h 3.2 km/h 89% 0.0 mm 0 W/m2
04:44 11.1 °C 9.4 °C 1001.7 hPa NW 1.4 km/h 9.7 km/h 89% 0.0 mm 0 W/m2
04:49 11.1 °C 9.4 °C 1001.4 hPa Calm   4.8 km/h 89% 0.0 mm 0 W/m2
04:54 11.1 °C 9.4 °C 1001.4 hPa Calm   4.8 km/h 89% 0.0 mm 0 W/m2
04:59 11 °C 9.3 °C 1001.4 hPa West 1.4 km/h 4.8 km/h 89% 0.0 mm 0 W/m2
05:04 10.9 °C 9.2 °C 1001.4 hPa West 1.4 km/h 1.6 km/h 89% 0.0 mm 0 W/m2
05:09 10.9 °C 9.3 °C 1001.4 hPa North 1.4 km/h 4.8 km/h 90% 0.0 mm 0 W/m2
05:14 10.9 °C 9.3 °C 1001.4 hPa West 3.2 km/h 8 km/h 90% 0.0 mm 0 W/m2
05:19 10.9 °C 9.3 °C 1001.4 hPa Calm   4.8 km/h 90% 0.0 mm 0 W/m2
05:24 10.9 °C 9.3 °C 1001.4 hPa Calm   8 km/h 90% 0.0 mm 0 W/m2
05:29 10.8 °C 9.2 °C 1001.4 hPa Calm   3.2 km/h 90% 0.0 mm 0 W/m2
05:34 10.8 °C 9.2 °C 1001.4 hPa Calm   3.2 km/h 90% 0.0 mm 0 W/m2
05:39 10.7 °C 9.3 °C 1001.4 hPa ENE 3.2 km/h 8 km/h 91% 0.0 mm 0 W/m2
05:44 10.7 °C 9.3 °C 1001.0 hPa NW 4.7 km/h 4.8 km/h 91% 0.2 mm 0 W/m2
05:49 10.7 °C 9.3 °C 1001.0 hPa Calm   8 km/h 91% 0.5 mm 0 W/m2
05:54 10.7 °C 9.5 °C 1000.7 hPa East 1.4 km/h 3.2 km/h 92% 0.5 mm 0 W/m2
05:59 10.6 °C 9.4 °C 1000.7 hPa North 1.4 km/h 3.2 km/h 92% 0.8 mm 0 W/m2
06:04 10.6 °C 9.4 °C 1000.3 hPa NE 3.2 km/h 3.2 km/h 92% 1.0 mm 0 W/m2
06:09 10.6 °C 9.5 °C 1000.3 hPa Calm   3.2 km/h 93% 1.3 mm 0 W/m2
06:14 10.6 °C 9.5 °C 1000.3 hPa NE 3.2 km/h 3.2 km/h 93% 1.5 mm 0 W/m2
06:19 10.4 °C 9.3 °C 1000.3 hPa Calm     93% 1.8 mm 0 W/m2
06:24 10.4 °C 9.5 °C 1000.0 hPa Calm     94% 1.8 mm 0 W/m2
06:29 10.3 °C 9.4 °C 1000.3 hPa ENE 1.4 km/h 1.6 km/h 94% 2.0 mm 0 W/m2
06:34 10.3 °C 9.4 °C 1000.0 hPa Calm   3.2 km/h 94% 2.3 mm 0 W/m2
06:39 10.3 °C 9.5 °C 1000.0 hPa East 3.2 km/h 4.8 km/h 95% 2.5 mm 0 W/m2
06:44 10.3 °C 9.5 °C 999.7 hPa WNW 1.4 km/h 6.4 km/h 95% 2.5 mm 0 W/m2
06:49 10.3 °C 9.5 °C 999.7 hPa Calm   4.8 km/h 95% 3.0 mm 0 W/m2
06:54 10.2 °C 9.4 °C 999.7 hPa NNW 3.2 km/h 8 km/h 95% 3.3 mm 0 W/m2
06:59 10.3 °C 9.5 °C 999.7 hPa NNW 1.4 km/h 4.8 km/h 95% 3.0 mm 0 W/m2
07:04 10.3 °C 9.5 °C 999.7 hPa NNE 3.2 km/h 12.9 km/h 95% 3.0 mm 0 W/m2
07:09 10.4 °C 9.6 °C 999.7 hPa NNW 3.2 km/h 6.4 km/h 95% 3.3 mm 0 W/m2
07:14 10.4 °C 9.6 °C 999.7 hPa ENE 6.4 km/h 12.9 km/h 95% 3.3 mm 0 W/m2
07:19 10.4 °C 9.6 °C 999.7 hPa NNE 3.2 km/h 3.2 km/h 95% 3.3 mm 0 W/m2
07:24 10.5 °C 9.7 °C 999.7 hPa Calm   9.7 km/h 95% 3.6 mm 0 W/m2
07:29 10.4 °C 9.6 °C 999.7 hPa North 1.4 km/h 3.2 km/h 95% 4.1 mm 0 W/m2
07:34 10.4 °C 9.6 °C 999.7 hPa Calm   4.8 km/h 95% 4.3 mm 0 W/m2
07:39 10.4 °C 9.6 °C 999.7 hPa NW 3.2 km/h 6.4 km/h 95% 5.1 mm 0 W/m2
07:44 10.4 °C 9.6 °C 999.3 hPa North 1.4 km/h 3.2 km/h 95% 5.6 mm 0 W/m2
07:49 10.4 °C 9.6 °C 999.0 hPa ENE 4.7 km/h 8 km/h 95% 5.6 mm 0 W/m2
07:54 10.3 °C 9.5 °C 999.0 hPa East 4.7 km/h 6.4 km/h 95% 5.8 mm 0 W/m2
07:59 10.3 °C 9.5 °C 998.6 hPa ENE 9.7 km/h 9.7 km/h 95% 5.8 mm 0 W/m2
08:04 10.2 °C 9.4 °C 998.6 hPa East 3.2 km/h 6.4 km/h 95% 6.1 mm 0 W/m2
08:09 10.2 °C 9.4 °C 999.0 hPa ENE 3.2 km/h 8 km/h 95% 5.8 mm 0 W/m2
08:14 10.1 °C 9.3 °C 998.6 hPa East 4.7 km/h 6.4 km/h 95% 5.8 mm 0 W/m2
08:19 10.1 °C 9.3 °C 998.6 hPa ESE 4.7 km/h 4.8 km/h 95% 5.8 mm 0 W/m2
08:24 10 °C 9.2 °C 998.6 hPa ESE 3.2 km/h 9.7 km/h 95% 5.8 mm 0 W/m2
08:29 9.9 °C 9.1 °C 998.3 hPa ENE 3.2 km/h 8 km/h 95% 5.3 mm 0 W/m2
08:34 9.8 °C 9 °C 998.3 hPa East 4.7 km/h 8 km/h 95% 5.1 mm 0 W/m2
08:39 9.8 °C 9.2 °C 998.3 hPa ENE 3.2 km/h 6.4 km/h 96% 3.8 mm 0 W/m2
08:44 9.8 °C 9.2 °C 998.3 hPa SE 3.2 km/h 3.2 km/h 96% 3.3 mm 0 W/m2
08:49 9.8 °C 9.2 °C 998.3 hPa East 7.9 km/h 11.3 km/h 96% 2.8 mm 0 W/m2
08:54 9.8 °C 9.2 °C 998.3 hPa East 3.2 km/h 12.9 km/h 96% 2.3 mm 5 W/m2
08:59 9.8 °C 9.2 °C 998.3 hPa NE 1.4 km/h 9.7 km/h 96% 2.3 mm 5 W/m2
09:04 9.8 °C 9.2 °C 998.0 hPa ENE 7.9 km/h 14.5 km/h 96% 2.0 mm 9 W/m2
09:09 9.8 °C 9.2 °C 998.0 hPa ESE 4.7 km/h 4.8 km/h 96% 1.8 mm 7 W/m2
09:14 9.9 °C 9.3 °C 998.0 hPa East 4.7 km/h 8 km/h 96% 1.5 mm 5 W/m2
09:19 10.2 °C 9.7 °C 998.0 hPa NNW 1.4 km/h 4.8 km/h 97% 1.3 mm 9 W/m2
09:24 10.4 °C 9.9 °C 998.0 hPa NE 3.2 km/h 16.1 km/h 97% 1.0 mm 12 W/m2
09:29 10.6 °C 10.1 °C 998.0 hPa NNW 3.2 km/h 9.7 km/h 97% 0.8 mm 12 W/m2
09:34 10.7 °C 10.2 °C 997.6 hPa NNW 4.7 km/h 8 km/h 97% 0.5 mm 14 W/m2
09:39 10.8 °C 10.2 °C 998.0 hPa West 1.4 km/h 9.7 km/h 96% 0.5 mm 25 W/m2
09:44 10.9 °C 10.3 °C 997.6 hPa WNW 1.4 km/h 12.9 km/h 96% 0.5 mm 25 W/m2
09:49 11.1 °C 10.5 °C 997.6 hPa SSW 4.7 km/h 8 km/h 96% 0.5 mm 37 W/m2
09:54 11.2 °C 10.6 °C 997.3 hPa West 1.4 km/h 8 km/h 96% 0.5 mm 44 W/m2
09:59 11.2 °C 10.6 °C 997.3 hPa Calm   6.4 km/h 96% 0.5 mm 46 W/m2
10:04 11.3 °C 10.7 °C 997.3 hPa WNW 3.2 km/h 12.9 km/h 96% 0.5 mm 33 W/m2
10:09 11.3 °C 10.5 °C 997.3 hPa WNW 6.4 km/h 9.7 km/h 95% 0.5 mm 33 W/m2
10:14 11.4 °C 10.6 °C 997.3 hPa East 3.2 km/h 16.1 km/h 95% 0.5 mm 19 W/m2
10:19 11.4 °C 10.6 °C 997.3 hPa ENE 3.2 km/h 8 km/h 95% 0.5 mm 16 W/m2
10:24 11.4 °C 10.6 °C 997.3 hPa NNE 3.2 km/h 16.1 km/h 95% 0.5 mm 14 W/m2
10:29 11.4 °C 10.6 °C 997.0 hPa South 1.4 km/h 8 km/h 95% 1.0 mm 28 W/m2
10:34 11.5 °C 10.7 °C 997.3 hPa WNW 14.3 km/h 14.5 km/h 95% 1.0 mm 25 W/m2
10:39 11.5 °C 10.7 °C 997.3 hPa ENE 1.4 km/h 8 km/h 95% 1.3 mm 33 W/m2
10:44 11.6 °C 10.8 °C 997.3 hPa ESE 14.5 km/h 14.5 km/h 95% 1.0 mm 21 W/m2
10:49 11.6 °C 10.8 °C 997.3 hPa Calm   3.2 km/h 95% 1.5 mm 16 W/m2
10:55 11.6 °C 10.8 °C 997.3 hPa NNW 4.7 km/h 9.7 km/h 95% 1.8 mm 18 W/m2
11:00 11.6 °C 10.8 °C 997.3 hPa WNW 3.2 km/h 9.7 km/h 95% 2.0 mm 28 W/m2
11:05 11.6 °C 10.8 °C 997.3 hPa WSW 3.2 km/h 4.8 km/h 95% 2.3 mm 25 W/m2
11:10 11.7 °C 10.9 °C 997.3 hPa WNW 11.1 km/h 17.7 km/h 95% 2.3 mm 33 W/m2
11:15 11.7 °C 10.9 °C 996.3 hPa SSE 6.4 km/h 6.4 km/h 95% 2.3 mm 33 W/m2
11:20 11.7 °C 10.8 °C 997.0 hPa West 11.1 km/h 17.7 km/h 94% 2.3 mm 44 W/m2
11:25 11.8 °C 10.9 °C 997.0 hPa NNE 6.4 km/h 6.4 km/h 94% 2.3 mm 42 W/m2
11:30 11.8 °C 10.9 °C 997.6 hPa WNW 3.2 km/h 11.3 km/h 94% 1.8 mm 19 W/m2
11:35 11.8 °C 10.9 °C 997.3 hPa West 4.7 km/h 9.7 km/h 94% 1.8 mm 35 W/m2
11:40 11.8 °C 10.7 °C 997.0 hPa WNW 14.3 km/h 14.5 km/h 93% 1.5 mm 28 W/m2
11:45 11.8 °C 10.7 °C 997.3 hPa WNW 7.9 km/h 12.9 km/h 93% 1.5 mm 39 W/m2
11:50 11.8 °C 10.7 °C 997.3 hPa WNW 6.4 km/h 17.7 km/h 93% 1.3 mm 32 W/m2
11:55 11.9 °C 10.8 °C 997.3 hPa Calm   3.2 km/h 93% 0.8 mm 47 W/m2
12:00 11.9 °C 10.6 °C 997.6 hPa NW 6.4 km/h 17.7 km/h 92% 0.5 mm 40 W/m2
12:05 11.9 °C 10.6 °C 997.6 hPa South 7.9 km/h 16.1 km/h 92% 0.2 mm 39 W/m2
12:10 11.9 °C 10.5 °C 997.6 hPa WNW 7.9 km/h 17.7 km/h 91% 0.2 mm 46 W/m2
12:15 11.9 °C 10.3 °C 997.6 hPa SW 7.9 km/h 14.5 km/h 90% 0.0 mm 39 W/m2
12:20 12 °C 10.4 °C 997.6 hPa WNW 4.7 km/h 14.5 km/h 90% 0.0 mm 35 W/m2
12:25 11.9 °C 10.1 °C 997.3 hPa West 1.4 km/h 14.5 km/h 89% 0.0 mm 37 W/m2
12:30 11.9 °C 10.1 °C 997.3 hPa WSW 1.4 km/h 11.3 km/h 89% 0.0 mm 35 W/m2
12:35 11.9 °C 10.1 °C 997.3 hPa WNW 4.7 km/h 14.5 km/h 89% 0.0 mm 54 W/m2
12:40 11.9 °C 10.1 °C 997.0 hPa West 4.7 km/h 12.9 km/h 89% 0.0 mm 58 W/m2
12:45 11.9 °C 10.1 °C 997.6 hPa East 3.2 km/h 8 km/h 89% 0.0 mm 40 W/m2
12:50 11.8 °C 10 °C 997.6 hPa SSW 1.4 km/h 9.7 km/h 89% 0.0 mm 70 W/m2
12:55 11.9 °C 10 °C 997.6 hPa West 14.3 km/h 20.9 km/h 88% 0.0 mm 67 W/m2
13:00 11.9 °C 9.8 °C 997.6 hPa North 4.7 km/h 8 km/h 87% 0.0 mm 95 W/m2
13:05 12 °C 9.9 °C 997.3 hPa WNW 3.2 km/h 11.3 km/h 87% 0.0 mm 69 W/m2
13:10 11.9 °C 9.8 °C 997.3 hPa NW 7.9 km/h 9.7 km/h 87% 0.0 mm 28 W/m2
13:15 11.9 °C 9.8 °C 997.0 hPa West 3.2 km/h 4.8 km/h 87% 0.0 mm 88 W/m2
13:20 11.9 °C 9.8 °C 997.3 hPa WNW 6.4 km/h 14.5 km/h 87% 0.0 mm 74 W/m2
13:25 11.8 °C 9.7 °C 997.3 hPa ESE 3.2 km/h 6.4 km/h 87% 0.0 mm 83 W/m2
13:30 11.8 °C 9.9 °C 997.3 hPa SW 1.4 km/h 14.5 km/h 88% 0.0 mm 142 W/m2
13:35 11.9 °C 10 °C 997.6 hPa NNW 9.7 km/h 12.9 km/h 88% 0.0 mm 141 W/m2
13:40 11.9 °C 10 °C 997.6 hPa SE 1.4 km/h 4.8 km/h 88% 0.0 mm 79 W/m2
13:45 11.9 °C 10 °C 997.6 hPa West 13 km/h 14.5 km/h 88% 0.0 mm 144 W/m2
13:50 12 °C 9.9 °C 997.6 hPa WNW 11.1 km/h 19.3 km/h 87% 0.0 mm 162 W/m2
13:55 12.1 °C 9.8 °C 997.6 hPa NW 9.7 km/h 11.3 km/h 86% 0.0 mm 51 W/m2
14:00 12.1 °C 9.8 °C 998.0 hPa NW 11.1 km/h 19.3 km/h 86% 0.0 mm 67 W/m2
14:05 12.2 °C 9.9 °C 998.0 hPa WSW 6.4 km/h 8 km/h 86% 0.0 mm 69 W/m2
14:10 12.2 °C 9.9 °C 997.6 hPa WNW 17.7 km/h 17.7 km/h 86% 0.0 mm 40 W/m2
14:15 12.2 °C 9.9 °C 998.0 hPa East 3.2 km/h 16.1 km/h 86% 0.0 mm 72 W/m2
14:20 12.2 °C 9.9 °C 998.0 hPa WNW 3.2 km/h 4.8 km/h 86% 0.0 mm 141 W/m2
14:25 12.2 °C 9.8 °C 997.6 hPa North 6.4 km/h 16.1 km/h 85% 0.0 mm 30 W/m2
14:30 12.2 °C 9.8 °C 997.6 hPa NNW 7.9 km/h 8 km/h 85% 0.0 mm 21 W/m2
14:35 12.2 °C 9.8 °C 997.6 hPa ESE 16.3 km/h 17.7 km/h 85% 0.0 mm 178 W/m2
14:40 12.2 °C 9.8 °C 997.6 hPa NNW 4.7 km/h 11.3 km/h 85% 0.0 mm 193 W/m2
14:45 12.3 °C 9.9 °C 997.6 hPa West 9.7 km/h 19.3 km/h 85% 0.0 mm 105 W/m2
14:50 12.3 °C 9.9 °C 997.6 hPa WSW 7.9 km/h 12.9 km/h 85% 0.0 mm 113 W/m2
14:55 12.3 °C 9.9 °C 997.6 hPa West 4.7 km/h 19.3 km/h 85% 0.0 mm 49 W/m2
15:00 12.2 °C 9.8 °C 997.6 hPa ESE 6.4 km/h 9.7 km/h 85% 0.0 mm 98 W/m2
15:05 12.2 °C 9.6 °C 997.6 hPa NW 7.9 km/h 19.3 km/h 84% 0.0 mm 134 W/m2
15:10 12.3 °C 9.5 °C 997.6 hPa SE 13 km/h 16.1 km/h 83% 0.0 mm 142 W/m2
15:15 12.4 °C 9.4 °C 997.6 hPa SW 1.4 km/h 12.9 km/h 82% 0.0 mm 86 W/m2
15:20 12.5 °C 9.3 °C 997.3 hPa West 11.1 km/h 16.1 km/h 81% 0.0 mm 60 W/m2
15:25 12.6 °C 9.2 °C 997.3 hPa SSW 3.2 km/h 25.7 km/h 80% 0.0 mm 56 W/m2
15:30 12.6 °C 9.1 °C 997.6 hPa West 11.1 km/h 19.3 km/h 79% 0.0 mm 37 W/m2
15:36 12.5 °C 9 °C 997.3 hPa West 9.7 km/h 12.9 km/h 79% 0.0 mm 60 W/m2
15:41 12.4 °C 8.7 °C 997.3 hPa NNW 9.7 km/h 14.5 km/h 78% 0.0 mm 86 W/m2
15:46 12.4 °C 8.9 °C 997.3 hPa NNE 3.2 km/h 12.9 km/h 79% 0.0 mm 60 W/m2
15:51 12.4 °C 8.7 °C 997.3 hPa WNW 6.4 km/h 14.5 km/h 78% 0.0 mm 77 W/m2
15:56 12.4 °C 8.7 °C 997.0 hPa WSW 3.2 km/h 3.2 km/h 78% 0.0 mm 91 W/m2
16:01 12.4 °C 8.7 °C 997.0 hPa North 1.4 km/h 12.9 km/h 78% 0.0 mm 40 W/m2
16:06 12.4 °C 8.7 °C 997.0 hPa SW 3.2 km/h 11.3 km/h 78% 0.0 mm 58 W/m2
16:11 12.4 °C 8.7 °C 997.0 hPa SW 4.7 km/h 11.3 km/h 78% 0.0 mm 47 W/m2
16:16 12.4 °C 8.7 °C 997.0 hPa NW 3.2 km/h 6.4 km/h 78% 0.0 mm 67 W/m2
16:21 12.4 °C 8.7 °C 997.0 hPa East 4.7 km/h 29 km/h 78% 0.0 mm 18 W/m2
16:26 12.3 °C 8.8 °C 997.3 hPa North 3.2 km/h 6.4 km/h 79% 0.0 mm 9 W/m2
16:31 12.3 °C 8.9 °C 997.3 hPa West 4.7 km/h 29 km/h 80% 0.0 mm 9 W/m2
16:36 12 °C 9 °C 997.0 hPa East 6.4 km/h 16.1 km/h 82% 0.2 mm 19 W/m2
16:41 11.6 °C 9 °C 997.0 hPa NNW 4.7 km/h 32.2 km/h 84% 0.8 mm 12 W/m2
16:46 11.3 °C 9 °C 997.0 hPa WNW 11.1 km/h 16.1 km/h 86% 1.3 mm 7 W/m2
16:51 11.1 °C 9 °C 997.0 hPa West 13 km/h 32.2 km/h 87% 1.5 mm 5 W/m2
16:56 10.8 °C 8.9 °C 997.0 hPa NNW 1.4 km/h 8 km/h 88% 1.5 mm 0 W/m2
17:01 10.7 °C 9.1 °C 997.3 hPa WNW 6.4 km/h 16.1 km/h 90% 1.8 mm 0 W/m2
17:06 10.7 °C 9.3 °C 997.3 hPa SW 1.4 km/h 9.7 km/h 91% 1.8 mm 7 W/m2
17:11 10.6 °C 9.2 °C 997.3 hPa NW 3.2 km/h 9.7 km/h 91% 2.0 mm 0 W/m2
17:16 10.6 °C 9.2 °C 997.3 hPa West 4.7 km/h 25.7 km/h 91% 2.0 mm 0 W/m2
17:21 10.6 °C 9.2 °C 997.3 hPa WSW 4.7 km/h 11.3 km/h 91% 2.3 mm 0 W/m2
17:26 10.6 °C 9.2 °C 997.3 hPa WNW 7.9 km/h 25.7 km/h 91% 2.5 mm 0 W/m2
17:31 10.7 °C 9.3 °C 997.3 hPa WNW 3.2 km/h 11.3 km/h 91% 2.8 mm 0 W/m2
17:36 10.7 °C 9.3 °C 997.3 hPa NW 3.2 km/h 17.7 km/h 91% 2.3 mm 0 W/m2
17:41 10.7 °C 9.3 °C 997.3 hPa East 3.2 km/h 9.7 km/h 91% 2.3 mm 0 W/m2
17:46 10.7 °C 9.3 °C 997.3 hPa West 1.4 km/h 17.7 km/h 91% 2.0 mm 0 W/m2
17:51 10.7 °C 9.1 °C 997.3 hPa NNW 3.2 km/h 8 km/h 90% 1.8 mm 0 W/m2
17:56 10.8 °C 9.2 °C 997.6 hPa West 24.1 km/h 27.4 km/h 90% 1.5 mm 0 W/m2
18:01 11 °C 9.1 °C 997.6 hPa WNW 3.2 km/h 19.3 km/h 88% 1.5 mm 0 W/m2
18:06 11 °C 9.1 °C 998.0 hPa WNW 3.2 km/h 27.4 km/h 88% 1.5 mm 0 W/m2
18:11 11.1 °C 9 °C 998.0 hPa North 9.7 km/h 9.7 km/h 87% 1.5 mm 0 W/m2
18:16 10.9 °C 9 °C 998.3 hPa SW 3.2 km/h 19.3 km/h 88% 1.5 mm 0 W/m2
18:21 10.8 °C 9.1 °C 998.0 hPa NW 14.3 km/h 14.5 km/h 89% 1.3 mm 0 W/m2
18:26 10.8 °C 9.1 °C 998.3 hPa WNW 1.4 km/h 19.3 km/h 89% 0.8 mm 0 W/m2
18:31 10.7 °C 9 °C 998.3 hPa East 3.2 km/h 16.1 km/h 89% 0.5 mm 0 W/m2
18:36 10.8 °C 9.1 °C 998.6 hPa WSW 4.7 km/h 20.9 km/h 89% 0.8 mm 0 W/m2
18:41 10.8 °C 9.1 °C 998.3 hPa West 19.5 km/h 20.9 km/h 89% 0.5 mm 0 W/m2
18:46 10.8 °C 9.1 °C 998.6 hPa NNW 4.7 km/h 20.9 km/h 89% 0.5 mm 0 W/m2
18:51 10.7 °C 9 °C 999.0 hPa SW 17.7 km/h 19.3 km/h 89% 1.0 mm 0 W/m2
18:56 10.5 °C 8.9 °C 999.3 hPa SW 20.9 km/h 20.9 km/h 90% 2.0 mm 0 W/m2
19:01 10.3 °C 8.9 °C 999.7 hPa WSW 16.3 km/h 30.6 km/h 91% 2.8 mm 0 W/m2
19:06 10.1 °C 8.7 °C 999.7 hPa NNE 19.5 km/h 29 km/h 91% 3.3 mm 0 W/m2
19:11 9.9 °C 8.3 °C 999.7 hPa WSW 11.1 km/h 19.3 km/h 90% 3.3 mm 0 W/m2
19:16 9.8 °C 8.2 °C 999.7 hPa West 11.1 km/h 20.9 km/h 90% 3.3 mm 0 W/m2
19:21 9.8 °C 8.2 °C 1000.0 hPa NNW 14.3 km/h 24.1 km/h 90% 3.3 mm 0 W/m2
19:26 9.7 °C 8.1 °C 1000.0 hPa NW 25.9 km/h 30.6 km/h 90% 3.3 mm 0 W/m2
19:31 9.7 °C 8.1 °C 1000.3 hPa NW 6.4 km/h 20.9 km/h 90% 3.3 mm 0 W/m2
19:36 9.6 °C 7.9 °C 1000.3 hPa WNW 13 km/h 24.1 km/h 89% 3.0 mm 0 W/m2
19:41 9.5 °C 7.6 °C 1000.3 hPa West 13 km/h 22.5 km/h 88% 3.0 mm 0 W/m2
19:46 9.4 °C 7.5 °C 1000.3 hPa West 11.1 km/h 19.3 km/h 88% 3.0 mm 0 W/m2
19:51 9.4 °C 7.5 °C 1000.7 hPa WNW 6.4 km/h 24.1 km/h 88% 2.3 mm 0 W/m2
19:56 9.4 °C 7.5 °C 1000.7 hPa West 11.1 km/h 20.9 km/h 88% 1.3 mm 0 W/m2
20:02 9.4 °C 7.5 °C 1001.0 hPa West 22.7 km/h 27.4 km/h 88% 0.5 mm 0 W/m2
20:07 9.4 °C 7.3 °C 1001.0 hPa West 11.1 km/h 22.5 km/h 87% 0.2 mm 0 W/m2
20:12 9.3 °C 7.1 °C 1001.0 hPa WSW 13 km/h 27.4 km/h 86% 0.0 mm 0 W/m2
20:17 9.3 °C 7.1 °C 1001.4 hPa WNW 13 km/h 25.7 km/h 86% 0.0 mm 0 W/m2
20:22 9.2 °C 7 °C 1001.4 hPa WNW 11.1 km/h 25.7 km/h 86% 0.0 mm 0 W/m2
20:27 9.2 °C 7 °C 1001.4 hPa WSW 4.7 km/h 32.2 km/h 86% 0.0 mm 0 W/m2
20:32 9.1 °C 6.9 °C 1001.7 hPa NW 20.9 km/h 20.9 km/h 86% 0.0 mm 0 W/m2
20:37 8.9 °C 6.7 °C 1002.0 hPa NW 27.4 km/h 32.2 km/h 86% 0.0 mm 0 W/m2
20:42 8.9 °C 6.7 °C 1002.0 hPa WNW 13 km/h 33.8 km/h 86% 0.0 mm 0 W/m2
20:47 8.9 °C 6.7 °C 1002.0 hPa WNW 22.7 km/h 24.1 km/h 86% 0.0 mm 0 W/m2
20:52 8.9 °C 6.7 °C 1002.4 hPa NW 19.5 km/h 32.2 km/h 86% 0.0 mm 0 W/m2
20:57 8.8 °C 6.6 °C 1002.4 hPa NW 19.5 km/h 41.8 km/h 86% 0.0 mm 0 W/m2
21:02 8.8 °C 6.6 °C 1003.0 hPa WSW 19.5 km/h 30.6 km/h 86% 0.0 mm 0 W/m2
21:07 8.7 °C 6.5 °C 1003.0 hPa SW 24.1 km/h 41.8 km/h 86% 0.0 mm 0 W/m2
21:12 8.7 °C 6.3 °C 1003.4 hPa WSW 25.9 km/h 45.1 km/h 85% 0.0 mm 0 W/m2
21:17 8.7 °C 6.5 °C 1003.4 hPa WNW 25.9 km/h 30.6 km/h 86% 0.0 mm 0 W/m2
21:22 8.6 °C 6.4 °C 1003.4 hPa WNW 24.1 km/h 45.1 km/h 86% 0.0 mm 0 W/m2
21:27 8.5 °C 6.5 °C 1003.7 hPa West 24.1 km/h 35.4 km/h 87% 0.0 mm 0 W/m2
21:32 8.4 °C 6.4 °C 1004.1 hPa West 6.4 km/h 20.9 km/h 87% 0.0 mm 0 W/m2
21:37 8.4 °C 6.2 °C 1004.1 hPa SW 17.7 km/h 35.4 km/h 86% 0.0 mm 0 W/m2
21:42 8.4 °C 6.2 °C 1004.4 hPa WNW 11.1 km/h 17.7 km/h 86% 0.0 mm 0 W/m2
21:47 8.4 °C 6.2 °C 1004.4 hPa West 13 km/h 25.7 km/h 86% 0.0 mm 0 W/m2
21:52 8.4 °C 6.2 °C 1004.7 hPa WNW 11.1 km/h 27.4 km/h 86% 0.0 mm 0 W/m2
21:57 8.4 °C 6.2 °C 1004.7 hPa WNW 14.3 km/h 27.4 km/h 86% 0.0 mm 0 W/m2
22:02 8.4 °C 5.9 °C 1005.1 hPa WNW 20.9 km/h 37 km/h 84% 0.0 mm 0 W/m2
22:07 8.4 °C 6 °C 1005.4 hPa West 9.7 km/h 20.9 km/h 85% 0.0 mm 0 W/m2
22:12 8.4 °C 6 °C 1005.8 hPa NW 14.3 km/h 20.9 km/h 85% 0.0 mm 0 W/m2
22:17 8.4 °C 6 °C 1005.8 hPa WNW 13 km/h 24.1 km/h 85% 0.0 mm 0 W/m2
22:22 8.4 °C 6 °C 1005.8 hPa West 14.3 km/h 20.9 km/h 85% 0.0 mm 0 W/m2
22:27 8.5 °C 6 °C 1006.1 hPa West 20.9 km/h 20.9 km/h 84% 0.0 mm 0 W/m2
22:32 8.4 °C 5.9 °C 1006.1 hPa WSW 9.7 km/h 19.3 km/h 84% 0.0 mm 0 W/m2
22:37 8.4 °C 6 °C 1006.4 hPa WNW 13 km/h 17.7 km/h 85% 0.0 mm 0 W/m2
22:42 8.4 °C 6 °C 1006.4 hPa WNW 11.1 km/h 27.4 km/h 85% 0.0 mm 0 W/m2
22:47 8.4 °C 6 °C 1006.8 hPa West 9.7 km/h 16.1 km/h 85% 0.0 mm 0 W/m2
22:52 8.3 °C 6.1 °C 1006.8 hPa NNE 4.7 km/h 27.4 km/h 86% 0.0 mm 0 W/m2
22:57 8.3 °C 6.3 °C 1006.8 hPa WNW 9.7 km/h 24.1 km/h 87% 0.0 mm 0 W/m2
23:02 8.2 °C 6.2 °C 1007.1 hPa WSW 14.3 km/h 20.9 km/h 87% 0.0 mm 0 W/m2
23:07 8.2 °C 6.2 °C 1007.1 hPa SW 14.3 km/h 24.1 km/h 87% 0.0 mm 0 W/m2
23:12 8.2 °C 6.2 °C 1007.1 hPa SSW 6.4 km/h 11.3 km/h 87% 0.0 mm 0 W/m2
23:17 8.2 °C 6.2 °C 1007.1 hPa NW 6.4 km/h 9.7 km/h 87% 0.0 mm 0 W/m2
23:22 8.2 °C 6.2 °C 1007.5 hPa WNW 14.3 km/h 19.3 km/h 87% 0.0 mm 0 W/m2
23:27 8.2 °C 6 °C 1007.5 hPa SSW 4.7 km/h 14.5 km/h 86% 0.0 mm 0 W/m2
23:32 8.2 °C 6 °C 1007.8 hPa West 6.4 km/h 14.5 km/h 86% 0.0 mm 0 W/m2
23:37 8.2 °C 6 °C 1008.1 hPa West 16.3 km/h 16.1 km/h 86% 0.0 mm 0 W/m2
23:42 8.2 °C 6 °C 1008.1 hPa WNW 4.7 km/h 17.7 km/h 86% 0.0 mm 0 W/m2
23:47 8.1 °C 5.7 °C 1008.1 hPa West 14.3 km/h 16.1 km/h 85% 0.0 mm 0 W/m2
23:52 8.1 °C 5.7 °C 1008.1 hPa SSW 6.4 km/h 14.5 km/h 85% 0.0 mm 0 W/m2
23:57 8.1 °C 5.7 °C 1008.1 hPa WSW 6.4 km/h 16.1 km/h 85% 0.0 mm 0 W/m2
Juneau County Weather
Compliments of Weather Underground - 4 mb